Regional Weather Roundup
Issued by NWS Bismarck, ND

Home | Current Version | Previous Version | Text Only | Print | Product List | Glossary On
Versions: 1 2 3 4 5 6 7 8 9 10 11 12 13 14 15 16 17 18 19 20 21 22 23 24 25 26 27 28 29 30 31 32 33 34 35 36 37 38 39 40 41 42 43 44 45 46 47 48 49 50
000
ASUS43 KBIS 041110
RWRBIS

NWR BROADCAST TEXT
NATIONAL WEATHER SERVICE BISMARCK ND
600 AM CDT SAT JUL 04 2015

NOTE: "FAIR" INDICATES FEW OR NO CLOUDS BELOW 12,000 FEET WITH NO
SIGNIFICANT WEATHER AND/OR OBSTRUCTIONS TO VISIBILITY.


CITY           SKY/WX    TMP DP  RH WIND       PRES   REMARKS
WILLISTON      CLEAR     62  58  86 CALM      29.78F FOG
MINOT          CLEAR     65  61  87 CALM      29.78F FOG
MINOT AFB      CLEAR     64  64 100 S8        29.78F FOG
BISMARCK       PTCLDY    63  62  97 SE6       29.86S FOG
DICKINSON      CLEAR     63  59  87 S10       29.83S FOG
GARRISON         N/A     65  63  93 SE5       29.83S
HETTINGER ARPT PTCLDY    63  58  83 E6        29.86F HAZE
JAMESTOWN      CLOUDY    66  63  90 S8        29.88F FOG
BEACH          FAIR      63  63 100 S8        29.82F
CROSBY         FAIR      64  64 100 S13       29.76F FOG
HARVEY         FAIR      64  64 100 S7        29.84F FOG
HAZEN          FAIR      66  59  77 W3        29.83F HAZE
LINTON         FAIR      63  63 100 SE8       29.87F FOG
MANDAN         FAIR      63  63 100 S7        29.87S FOG
OAKES            N/A     61  61 100 S6        29.90S FOG
STANLEY        FAIR      64  64 100 S6        29.82S FOG
$$

CITY           SKY/WX    TMP DP  RH WIND       PRES   REMARKS
GRAND FORKS    CLOUDY    61  58  90 S3        29.87S FOG
GRAND FORKS AF CLEAR     60  58  92 S6        29.87F FOG
DEVILS LAKE    CLEAR     66  61  82 S8        29.84F
FARGO          CLEAR     65  60  84 SE7       29.89S HAZE
CANDO          FAIR      63  63 100 S6        29.85S FOG
CAVALIER       FAIR      59  59 100 S3        29.85F FOG
GRAFTON        FAIR      59  59 100 S7        29.86F FOG
GWINNER          N/A     64  64 100 S6        29.91S
LANGDON        FAIR      63  61  94 S12       29.87S FOG
ROLLA          FAIR      59  59 100 S7        29.85F FOG
WALHALLA       FAIR      64  64 100 MISG      29.84F FOG
$$

CITY           SKY/WX    TMP DP  RH WIND       PRES   REMARKS
ABERDEEN       CLEAR     62  61  96 S3        29.91R FOG
MOBRIDGE       PTCLDY    68  67  96 S10       29.86S FOG
BUFFALO          N/A     63  60  90 CALM      29.80F
RAPID CITY     CLEAR     61  58  90 SE7       29.88F
GLASGOW        CLEAR     63  55  75 E9        29.73S
SIDNEY         CLEAR     63  57  82 S5        29.78F
WOLF POINT     CLEAR     62  58  86 E5        29.75S FOG
GLENDIVE       CLEAR     59  55  88 S5        29.80F
MILES CITY     CLEAR     67  59  75 E5        29.79S
BAKER          PTCLDY    61  57  87 SE8       29.84F
$$

CITY           SKY/WX    TMP DP  RH WIND       PRES   REMARKS
BILLINGS       PTCLDY    67  53  61 W6        29.86R
GREAT FALLS    CLEAR     62  43  49 SW8       29.84R
REGINA         CLOUDY    64  63  94 E7        29.75F FOG
ESTEVAN        PTCLDY    64  63  94 SE6       29.76F SMOKE
$$




USA.gov is the U.S. government's official web portal to all federal, state and local government web resources and services.